CW9086 Weather Reports


Display with metric or nautical units.
time (UTC)temp
F
wind
direction
speed
MPH
gust
MPH
rain 1hr
in
rain 24hr
in
rain mn
in
humidity
%
barometer
mb
20260505223605 63 212 1.0 2.0 0.00 0.00 0.00 73 1015.8
20260505223104 63 212 0.0 1.0 0.00 0.00 0.00 73 1015.8
20260505222605 63 212 0.0 2.0 0.00 0.00 0.00 74 1015.9
20260505222105 62 212 0.0 2.0 0.00 0.00 0.00 74 1015.9
20260505221606 62 212 1.0 2.0 0.00 0.00 0.00 74 1015.8
20260505221105 62 212 0.0 2.0 0.00 0.00 0.00 73 1015.9
20260505220104 62 212 0.0 3.0 0.00 0.00 0.00 74 1015.8
20260505215605 63 212 1.0 3.0 0.00 0.00 0.00 73 1015.8
20260505215105 63 212 0.0 2.0 0.00 0.00 0.00 74 1015.8
20260505214604 63 212 0.0 3.0 0.00 0.00 0.00 74 1015.9
20260505214106 63 212 0.0 3.0 0.00 0.00 0.00 75 1015.9
20260505213604 63 212 0.0 2.0 0.00 0.00 0.00 76 1015.9
20260505213104 63 212 0.0 3.0 0.00 0.00 0.00 75 1015.9
20260505212606 62 212 0.0 3.0 0.00 0.00 0.00 75 1016.0
20260505212104 62 212 0.0 3.0 0.00 0.00 0.00 75 1016.0
20260505211604 62 212 1.0 3.0 0.00 0.00 0.00 73 1016.0
20260505211104 63 212 0.0 2.0 0.00 0.00 0.00 76 1016.0
20260505210604 63 212 0.0 3.0 0.00 0.00 0.00 75 1016.0
20260505210106 63 212 0.0 3.0 0.00 0.00 0.00 75 1016.1
20260505205604 63 212 1.0 2.0 0.00 0.00 0.00 74 1016.1
20260505205104 63 212 0.0 2.0 0.00 0.00 0.00 75 1016.1
20260505204104 63 212 0.0 2.0 0.00 0.00 0.00 74 1016.1
20260505203604 63 212 0.0 2.0 0.00 0.00 0.00 75 1016.2
20260505202604 63 212 0.0 3.0 0.00 0.00 0.00 76 1016.1
20260505202106 62 212 0.0 3.0 0.00 0.00 0.00 76 1016.0
20260505201604 62 210 0.0 3.0 0.00 0.00 0.00 76 1015.9
20260505201104 62 210 1.0 3.0 0.00 0.00 0.00 76 1015.9
20260505200604 62 195 0.0 2.0 0.00 0.00 0.00 77 1015.9
20260505200104 62 195 0.0 3.0 0.00 0.00 0.00 78 1015.8
20260505195105 62 196 1.0 3.0 0.00 0.00 0.00 78 1015.8
20260505194604 61 209 0.0 2.0 0.00 0.00 0.00 78 1015.8
20260505193604 61 209 0.0 5.0 0.00 0.00 0.00 79 1015.7
20260505193104 61 200 2.0 5.0 0.00 0.00 0.00 78 1015.8
20260505192604 61 209 1.0 3.0 0.00 0.00 0.00 78 1015.8
20260505191604 60 212 1.0 3.0 0.00 0.00 0.00 79 1015.8
20260505191104 60 212 1.0 3.0 0.00 0.00 0.00 78 1015.8
20260505190604 60 209 1.0 3.0 0.00 0.00 0.00 78 1015.8
20260505190104 60 209 1.0 3.0 0.00 0.00 0.00 79 1015.7
20260505185104 60 210 0.0 3.0 0.00 0.00 0.00 78 1015.8
20260505184604 60 197 1.0 3.0 0.00 0.00 0.00 78 1015.8
20260505183105 60 209 0.0 3.0 0.00 0.00 0.00 78 1015.6
20260505182604 60 209 1.0 3.0 0.00 0.00 0.00 78 1015.6
20260505182106 60 208 0.0 3.0 0.00 0.00 0.00 78 1015.5
20260505181604 60 208 0.0 2.0 0.00 0.00 0.00 79 1015.5
20260505180605 61 195 0.0 1.0 0.00 0.00 0.00 79 1015.5
20260505180104 61 195 0.0 1.0 0.00 0.00 0.00 80 1015.4
20260505175604 60 195 0.0 1.0 0.00 0.00 0.00 81 1015.5
20260505175104 60 195 0.0 1.0 0.00 0.00 0.00 82 1015.4
20260505174605 60 195 0.0 1.0 0.00 0.00 0.00 82 1015.5
20260505174104 60 195 0.0 1.0 0.00 0.00 0.00 82 1015.4
20260505173603 59 195 0.0 1.0 0.00 0.00 0.00 83 1015.3
20260505173104 59 195 0.0 2.0 0.00 0.00 0.00 83 1015.3
20260505172104 58 195 0.0 2.0 0.00 0.00 0.00 83 1015.3
20260505171604 58 195 0.0 2.0 0.00 0.00 0.00 83 1015.3
20260505171104 58 207 0.0 2.0 0.00 0.00 0.00 83 1015.2
20260505170606 58 211 0.0 3.0 0.00 0.00 0.00 83 1015.3
20260505165604 57 195 0.0 5.0 0.00 0.00 0.00 83 1015.2
20260505165104 57 195 1.0 3.0 0.00 0.00 0.00 83 1015.2
20260505164605 57 195 1.0 6.0 0.00 0.00 0.00 83 1015.2
20260505164105 57 195 0.0 6.0 0.00 0.00 0.00 83 1015.1
20260505163604 57 195 1.0 3.0 0.00 0.00 0.00 83 1015.0
20260505163104 56 195 1.0 3.0 0.00 0.00 0.00 83 1014.9
20260505162604 56 195 0.0 2.0 0.00 0.00 0.00 84 1014.9
20260505162104 56 195 0.0 3.0 0.00 0.00 0.00 84 1014.9
20260505161604 56 195 1.0 3.0 0.00 0.00 0.00 85 1014.8
20260505160604 56 195 1.0 3.0 0.00 0.00 0.00 86 1014.7
20260505160104 56 195 0.0 3.0 0.00 0.00 0.00 86 1014.8
20260505153104 55 195 1.0 3.0 0.00 0.00 0.00 87 1014.5
20260505152605 55 195 0.0 2.0 0.00 0.00 0.00 87 1014.4
20260505151606 55 195 0.0 2.0 0.00 0.00 0.00 87 1014.4
20260505151104 55 195 1.0 3.0 0.00 0.00 0.00 87 1014.3
20260505150604 55 195 1.0 3.0 0.00 0.00 0.00 88 1014.2
20260505140604 54 195 0.0 1.0 0.00 0.00 0.00 87 1014.0
20260505140105 54 195 0.0 1.0 0.00 0.00 0.00 88 1013.9
20260505130104 54 195 1.0 3.0 0.00 0.00 0.00 88 1013.4
20260505124104 54 195 0.0 2.0 0.00 0.00 0.00 87 1013.2
20260505123604 54 195 0.0 2.0 0.00 0.00 0.00 88 1013.2
20260505123104 54 195 0.0 0.0 0.00 0.00 0.00 88 1013.1
20260505122604 54 195 0.0 0.0 0.00 0.00 0.00 87 1013.1
20260505121605 54 195 0.0 0.0 0.00 0.00 0.00 87 1013.1
20260505121105 54 195 0.0 0.0 0.00 0.00 0.00 87 1013.1
20260505120603 54 195 0.0 0.0 0.00 0.00 0.00 87 1013.1
20260505120104 54 195 0.0 0.0 0.00 0.00 0.00 87 1013.2
20260505115604 54 195 0.0 1.0 0.00 0.00 0.00 87 1013.2
20260505115105 54 195 0.0 1.0 0.00 0.00 0.00 87 1013.2
20260505114604 54 195 0.0 1.0 0.00 0.00 0.00 87 1013.1
20260505114104 54 195 0.0 2.0 0.00 0.00 0.00 87 1013.0
20260505113604 55 195 0.0 2.0 0.00 0.00 0.00 87 1013.0
20260505113103 55 195 0.0 1.0 0.00 0.00 0.00 87 1013.0
20260505112603 55 195 0.0 1.0 0.00 0.00 0.00 87 1013.0
20260505112104 55 195 0.0 1.0 0.00 0.00 0.00 87 1013.0
20260505111604 55 195 0.0 0.0 0.00 0.00 0.00 87 1013.0
20260505110604 55 195 0.0 2.0 0.00 0.00 0.00 87 1013.0
20260505102105 55 195 0.0 1.0 0.00 0.00 0.00 88 1012.8
20260505101104 55 195 0.0 1.0 0.00 0.00 0.00 88 1012.8
20260505100104 55 195 0.0 5.0 0.00 0.00 0.00 88 1012.8
20260505095104 55 195 0.0 3.0 0.00 0.00 0.00 88 1012.9
20260505094603 55 195 0.0 3.0 0.00 0.00 0.00 87 1012.9
20260505094104 55 207 0.0 3.0 0.00 0.00 0.00 87 1012.8
20260505093603 55 209 0.0 2.0 0.00 0.00 0.00 87 1012.8
20260505092603 55 209 0.0 3.0 0.00 0.00 0.00 87 1012.6
20260505092104 55 209 1.0 3.0 0.00 0.00 0.00 87 1012.6
20260505091603 55 209 0.0 2.0 0.00 0.00 0.00 87 1012.7
20260505091106 55 209 0.0 2.0 0.00 0.00 0.00 87 1012.7
20260505090106 55 209 0.0 2.0 0.00 0.00 0.00 87 1012.7
20260505085605 55 209 0.0 3.0 0.00 0.00 0.00 87 1012.6
20260505085105 55 209 0.0 3.0 0.00 0.00 0.00 87 1012.6
20260505084605 55 209 0.0 1.0 0.00 0.00 0.00 87 1012.6
20260505084105 55 209 0.0 2.0 0.00 0.00 0.00 87 1012.5
20260505083605 55 209 0.0 2.0 0.00 0.00 0.00 87 1012.5
20260505083105 55 195 0.0 3.0 0.00 0.00 0.00 87 1012.5
20260505082607 55 195 0.0 3.0 0.00 0.00 0.00 87 1012.5
20260505082105 55 195 0.0 1.0 0.00 0.00 0.00 87 1012.5
20260505081605 55 195 0.0 2.0 0.00 0.00 0.00 87 1012.5
20260505081107 55 195 0.0 3.0 0.00 0.00 0.00 87 1012.6
20260505080607 55 195 0.0 3.0 0.00 0.00 0.00 87 1012.5
20260505075605 55 195 1.0 3.0 0.00 0.00 0.00 87 1012.5
20260505075105 55 197 1.0 3.0 0.00 0.00 0.00 87 1012.5
20260505074605 55 195 0.0 3.0 0.00 0.00 0.00 86 1012.5
20260505074106 55 195 0.0 3.0 0.00 0.00 0.00 86 1012.4
20260505073605 55 195 0.0 2.0 0.00 0.00 0.00 87 1012.4
20260505073105 55 195 0.0 2.0 0.00 0.00 0.00 87 1012.4
20260505072605 55 195 0.0 2.0 0.00 0.00 0.00 86 1012.4
20260505072105 55 195 0.0 2.0 0.00 0.00 0.00 86 1012.4
20260505071604 55 195 0.0 2.0 0.00 0.00 0.00 86 1012.3
20260505071110 55 195 0.0 3.0 0.00 0.00 0.00 86 1012.2
20260505070606 55 195 1.0 3.0 0.00 0.00 0.00 86 1012.1
20260505070105 55 195 0.0 2.0 0.00 0.00 0.00 86 1012.2
20260505065605 55 195 0.0 2.0 0.00 0.00 0.00 86 1012.2
20260505064605 55 208 0.0 3.0 0.00 0.00 0.00 86 1012.1
20260505064105 55 195 1.0 3.0 0.00 0.00 0.00 86 1012.2
20260505063605 55 195 0.0 3.0 0.00 0.00 0.00 86 1012.2
20260505062605 55 211 1.0 3.0 0.00 0.00 0.00 86 1012.2
20260505061605 55 195 1.0 2.0 0.00 0.00 0.00 86 1012.1
20260505061105 55 195 0.0 2.0 0.00 0.00 0.00 85 1012.1
20260505060604 55 195 1.0 2.0 0.00 0.00 0.00 85 1012.1
20260505055605 55 195 0.0 2.0 0.00 0.00 0.00 85 1012.1
20260505055105 55 195 0.0 3.0 0.00 0.00 0.00 85 1012.0
20260505054605 55 195 0.0 5.0 0.00 0.00 0.00 85 1012.0
20260505054105 55 195 2.0 5.0 0.00 0.00 0.00 85 1011.9
20260505053606 56 195 1.0 3.0 0.00 0.00 0.00 85 1012.0
20260505011104 58 195 2.0 3.0 0.00 0.00 0.00 80 1011.8
20260505010605 59 195 1.0 3.0 0.00 0.00 0.00 80 1011.8
20260505010106 59 195 2.0 3.0 0.00 0.00 0.00 80 1011.9
20260505005604 59 207 1.0 7.0 0.00 0.00 0.00 80 1011.9
20260505005105 59 211 0.0 7.0 0.00 0.00 0.00 79 1011.9
20260505004604 59 195 1.0 3.0 0.00 0.00 0.00 80 1011.9
20260505004104 59 195 0.0 5.0 0.00 0.00 0.00 80 1011.9
20260505003605 59 195 2.0 5.0 0.00 0.00 0.00 79 1011.9
20260505003104 60 209 1.0 5.0 0.00 0.00 0.00 80 1011.8
20260505002606 60 195 0.0 3.0 0.00 0.00 0.00 80 1011.9
20260505002104 60 195 1.0 3.0 0.00 0.00 0.00 79 1011.9
20260505001604 60 210 1.0 3.0 0.00 0.00 0.00 78 1011.9
20260505001104 60 195 1.0 3.0 0.00 0.00 0.00 78 1011.8
20260505000605 60 195 1.0 3.0 0.00 0.00 0.00 78 1011.8
20260505000104 60 195 0.0 3.0 0.00 0.00 0.00 77 1011.9
20260504235604 60 206 2.0 3.0 0.00 0.00 0.00 77 1011.8
20260504235105 61 200 1.0 5.0 0.00 0.00 0.00 77 1011.8
20260504234605 61 195 2.0 6.0 0.00 0.00 0.00 76 1011.9
20260504234104 61 195 1.0 6.0 0.00 0.00 0.00 77 1011.9
20260504233605 61 195 2.0 3.0 0.00 0.00 0.00 77 1012.0
20260504233104 61 219 1.0 6.0 0.00 0.00 0.00 77 1011.9
20260504232604 61 196 1.0 6.0 0.00 0.00 0.00 76 1011.9
20260504232106 62 209 1.0 6.0 0.00 0.00 0.00 76 1011.9
20260504231105 62 207 1.0 8.0 0.00 0.00 0.00 76 1011.9
20260504230104 62 195 2.0 8.0 0.00 0.00 0.00 76 1012.0
20260504225605 62 213 1.0 8.0 0.00 0.00 0.00 76 1012.0
20260504225104 62 199 2.0 8.0 0.00 0.00 0.00 76 1011.9
20260504224604 62 195 3.0 6.0 0.00 0.00 0.00 76 1012.0
20260504224104 62 199 2.0 5.0 0.00 0.00 0.00 75 1012.0